Wind_Speed
10 11 11 11 11 11 11 11 10 11 11 11 11 11 11 12 13 13 14 14 14 15 15 15 15 15 15 16 17 17 18 19 19 20 20 20 21 21 21 21 21 21 21 21 21 21 20 20 20 20 20 21 22 22 24 25 27 28 29 30 28 25 25 27 30 35 36 32 29 29 27 27 28 26 25 26 26 27 27 26 28 30 31 31 32
10 11 11 11 11 11 10 10 10 10 10 10 11 12 12 13 13 13 13 14 14 15 15 15 16 16 17 17 18 19 20 21 21 22 22 22 22 22 22 23 23 23 23 23 24 23 23 22 21 21 21 22 22 22 22 24 26 27 27 28 30 29 26 26 27 31 35 35 31 30 30 28 28 27 25 26 26 27 28 28 29 31 33 33 33
10 11 11 12 12 10 9 10 10 9 10 11 12 12 13 13 13 13 14 14 15 15 16 16 17 17 18 19 20 21 22 23 23 23 23 23 23 23 23 23 24 24 24 24 25 25 26 26 25 24 23 23 23 22 22 22 23 25 26 27 29 32 31 31 29 28 32 34 32 30 31 29 29 28 27 26 25 26 28 28 29 32 34 34 34
10 11 12 12 12 11 11 11 11 11 12 12 13 13 13 13 14 14 15 16 16 16 17 18 18 19 20 22 23 24 24 25 25 25 25 26 26 26 26 26 25 25 25 24 24 25 26 27 27 26 26 25 25 24 23 24 23 23 24 25 27 30 32 34 35 33 31 32 32 31 31 31 30 29 29 28 27 26 27 27 29 31 34 35 35
9 10 11 11 12 13 13 13 13 13 14 14 14 14 14 15 15 16 17 17 17 18 19 20 21 22 23 24 24 25 26 26 26 27 28 29 29 29 29 29 29 28 27 26 25 25 25 25 26 26 26 27 26 26 25 26 26 25 25 26 26 28 30 32 35 37 37 37 34 31 30 31 32 31 30 28 28 28 28 28 29 30 33 35 35
8 9 9 10 12 14 15 14 14 15 15 15 15 15 16 16 17 18 18 19 19 20 21 21 22 23 23 24 25 26 26 27 28 29 30 31 31 31 31 30 30 30 29 28 27 26 25 25 25 25 26 27 27 27 27 27 27 27 27 28 28 28 29 30 31 34 37 41 41 37 32 32 33 33 31 29 29 28 28 30 30 29 31 34 34
7 7 7 9 13 15 15 15 15 16 16 16 17 17 18 18 19 20 20 20 21 21 22 22 22 23 23 24 24 25 26 28 29 30 31 31 31 31 31 31 31 30 30 29 28 28 26 25 24 24 25 26 27 27 28 28 27 27 27 27 28 28 30 30 30 31 33 37 42 43 40 35 32 33 32 31 31 30 28 30 32 31 32 34 35
5 6 7 9 13 15 15 15 16 17 17 18 18 19 19 20 20 20 20 21 22 22 22 22 22 23 23 24 24 26 27 29 30 31 32 32 32 32 32 32 32 31 30 29 28 28 27 25 24 24 24 25 26 26 27 27 28 29 28 27 27 27 28 29 30 31 31 32 37 41 43 39 35 34 33 31 33 34 32 31 32 32 33 35 35
5 6 8 11 13 14 15 16 17 17 18 18 19 20 20 21 21 21 21 22 22 22 22 22 22 23 23 24 25 26 27 29 30 31 32 32 33 33 33 32 32 31 31 30 29 28 27 25 24 23 23 24 25 26 26 26 26 28 29 28 28 28 29 29 29 30 31 33 34 36 40 42 40 36 33 31 34 35 34 33 33 32 33 35 36
7 8 9 12 14 14 16 17 17 17 18 19 20 20 20 21 21 21 21 21 21 22 22 22 22 23 23 23 24 25 26 27 28 28 30 31 32 33 33 33 32 32 32 31 30 29 27 26 25 23 23 24 24 25 26 26 27 27 28 29 30 31 32 32 31 30 31 33 35 35 37 41 43 41 38 35 35 35 35 35 34 33 34 36 38
10 11 12 14 15 16 17 17 17 18 19 19 19 20 20 20 21 21 21 21 21 21 21 21 22 22 22 22 23 24 25 26 26 27 28 30 31 31 32 32 32 32 32 32 31 30 28 27 26 25 24 25 25 26 26 27 27 28 29 29 29 30 32 33 34 33 33 34 36 37 38 41 43 44 43 39 35 35 36 36 35 34 35 38 40
15 15 16 16 17 17 17 17 17 18 18 19 19 19 19 20 20 21 21 22 22 21 22 22 22 22 22 22 23 24 25 25 26 27 28 29 29 30 31 32 32 32 32 32 32 31 30 30 30 29 28 28 29 29 28 27 26 28 30 30 30 30 31 32 33 33 34 35 36 38 40 41 42 43 44 42 35 33 34 36 36 36 37 39 40
17 17 17 17 17 17 17 17 17 17 18 18 19 19 19 20 21 22 22 23 23 23 23 24 23 23 23 23 23 24 24 24 25 26 27 28 28 29 30 31 32 32 32 32 32 32 31 32 33 33 34 34 34 34 34 32 29 27 28 31 32 31 30 30 31 31 33 34 36 39 40 41 43 43 43 42 38 34 35 38 38 38 39 40 39
18 18 18 17 17 17 16 16 16 17 17 17 18 18 20 21 23 24 24 24 24 24 24 24 24 23 23 22 22 22 23 24 25 26 27 27 28 29 30 32 33 33 34 34 34 33 32 32 33 34 36 36 36 35 36 37 35 32 29 30 32 33 30 28 28 30 32 33 36 40 41 40 43 45 43 41 39 36 35 36 35 36 38 38 36
20 20 19 18 17 16 15 15 16 16 17 17 18 20 22 24 25 26 26 26 26 25 25 24 24 23 22 22 21 22 23 24 26 27 27 28 29 30 32 33 34 35 35 35 34 33 32 32 32 33 34 35 35 35 36 37 38 37 35 32 33 33 30 28 28 29 29 31 34 38 42 41 41 44 43 40 39 37 35 32 31 32 34 35 36
21 20 19 18 16 15 15 15 15 16 16 17 19 22 24 25 26 27 27 27 26 26 25 24 24 23 22 21 21 22 24 25 26 27 28 29 30 32 33 34 35 36 36 36 34 33 31 31 31 32 33 33 34 35 35 36 37 38 38 36 35 34 31 30 31 30 28 28 29 33 38 40 39 41 42 40 39 39 36 33 32 31 32 35 38
21 20 19 17 16 15 15 15 15 16 17 19 21 23 24 25 26 27 27 27 27 26 25 24 23 22 22 22 22 23 24 25 27 28 29 30 31 33 34 35 36 37 37 36 35 33 31 29 29 31 32 32 32 33 34 35 35 35 36 37 37 37 36 33 32 29 26 25 26 28 30 31 31 33 35 35 36 39 39 38 37 36 36 37 38
20 19 18 17 16 15 15 15 15 16 17 20 22 23 24 25 26 27 27 27 27 26 25 24 22 22 22 22 22 23 24 25 27 28 29 31 33 34 34 35 36 36 37 37 35 33 31 30 29 30 31 31 31 31 31 32 33 34 34 35 36 37 37 36 33 29 26 25 23 23 21 19 18 20 24 25 26 30 35 38 38 36 36 38 38
19 18 17 16 15 15 15 15 15 17 19 20 21 22 23 24 25 25 26 27 26 26 26 25 24 23 22 22 22 23 24 24 26 28 30 31 33 34 34 35 35 36 36 36 34 33 32 32 31 31 31 31 31 30 29 29 30 31 31 31 33 33 32 32 30 27 27 26 22 19 16 14 13 16 20 23 25 28 34 36 35 33 33 34 36
18 17 17 17 16 16 16 16 16 17 19 20 20 21 22 23 23 24 25 25 25 25 25 26 26 25 24 24 23 23 24 24 25 27 29 31 32 33 34 34 34 35 34 33 32 32 32 32 33 33 33 33 32 30 29 28 27 28 29 29 29 29 27 25 22 19 20 20 18 15 14 14 16 18 20 22 24 28 33 36 35 33 31 30 34
18 18 18 17 17 17 16 16 16 17 18 19 19 20 20 21 21 22 23 23 24 25 25 26 27 27 26 26 25 24 23 23 24 26 28 30 31 32 32 32 32 32 31 30 29 29 30 33 33 32 33 34 33 31 31 29 26 25 26 27 26 23 20 20 20 17 14 13 11 9 8 10 14 18 21 23 25 27 29 30 30 31 29 28 30
20 20 19 18 18 17 17 17 17 17 17 17 17 18 19 19 20 20 21 22 23 24 25 26 27 28 28 28 27 26 25 24 25 26 27 28 29 30 30 30 31 30 28 27 28 28 29 33 33 31 32 34 34 33 33 31 28 26 25 26 26 24 23 27 27 23 18 17 15 12 9 6 3 5 10 14 18 20 21 22 23 26 27 27 27
21 21 20 19 18 18 18 17 16 16 16 16 16 16 17 17 18 18 19 20 22 23 25 26 27 28 29 29 29 28 26 25 25 26 26 27 28 29 28 28 29 28 26 26 27 28 29 32 32 32 31 33 35 36 35 34 32 28 27 28 30 29 30 34 34 29 25 24 23 20 18 16 14 11 7 4 3 2 5 10 16 20 24 27 27
22 21 20 19 18 18 17 17 16 15 15 14 15 15 15 16 16 17 18 19 21 23 24 25 27 29 29 30 30 30 27 25 24 25 26 26 27 28 27 27 28 28 27 26 27 28 30 31 33 34 34 33 34 36 38 37 35 32 31 33 35 34 34 36 37 35 31 29 27 25 22 19 17 16 15 13 11 9 6 3 2 6 12 18 22
21 20 19 18 17 17 16 16 15 14 14 13 13 13 13 14 15 16 17 18 20 22 23 25 27 28 30 30 30 30 29 27 25 25 26 27 27 28 28 27 27 28 28 28 28 28 30 31 33 36 38 37 35 37 39 39 39 37 36 36 38 38 37 36 37 38 36 34 31 27 25 22 18 15 13 12 10 8 9 10 9 7 4 3 10
19 18 17 17 16 15 15 15 14 13 13 12 12 11 12 13 13 14 16 17 19 20 22 24 26 27 29 31 30 30 30 29 26 25 26 27 26 27 29 28 27 28 28 28 28 28 30 32 34 36 40 41 40 40 40 40 40 41 40 38 38 40 40 40 39 39 38 37 35 31 27 25 21 16 12 10 9 10 12 13 12 10 10 7 3
18 17 16 16 15 15 14 14 13 13 12 11 11 10 11 11 12 13 14 15 17 19 20 22 24 26 28 30 30 30 30 30 28 27 27 27 24 24 26 27 27 27 28 28 29 30 31 34 36 37 40 42 42 42 42 41 41 42 44 42 39 37 39 41 41 40 39 38 37 34 31 28 25 21 17 14 13 13 13 14 14 13 12 10 5
17 16 16 15 14 14 14 13 13 12 11 11 10 10 10 10 11 12 13 14 15 17 18 21 22 24 26 28 30 30 30 30 30 28 27 27 26 24 26 27 26 26 27 28 30 31 33 36 38 39 41 43 44 45 45 44 42 42 44 45 41 36 35 39 42 43 41 39 38 38 37 34 31 28 24 20 17 15 14 13 14 13 11 7 5
15 15 15 14 13 13 13 12 12 11 10 10 10 10 10 10 10 11 12 12 13 14 16 18 20 22 24 26 28 29 29 29 29 28 25 24 25 26 27 27 26 26 25 27 29 30 30 34 39 41 42 43 45 47 47 46 44 43 43 45 43 38 36 39 42 43 43 42 41 40 40 38 35 33 30 27 22 18 15 14 14 12 10 9 12
14 14 14 13 12 12 12 12 11 10 9 9 9 10 10 10 11 11 11 11 12 13 14 15 17 19 21 23 25 26 27 27 27 26 25 25 25 26 26 26 26 26 25 27 31 30 27 29 36 40 41 41 42 44 46 47 46 45 44 44 44 42 39 39 41 41 41 41 42 42 41 39 38 36 34 31 29 24 20 18 17 16 16 17 20
14 14 14 13 12 11 12 12 11 10 9 8 9 9 10 10 11 11 11 11 11 12 12 13 15 16 18 20 21 23 24 25 25 25 25 25 25 25 26 26 26 27 27 29 32 30 26 26 29 32 36 39 40 40 42 44 45 46 45 44 43 42 40 39 40 41 40 40 41 42 43 42 41 39 37 34 33 30 28 25 23 21 22 23 24
15 15 15 13 12 11 11 12 11 10 8 8 7 8 9 9 9 10 11 11 11 11 11 12 14 15 16 17 19 21 22 23 24 24 24 24 25 24 25 26 26 28 28 31 32 30 25 23 24 26 30 35 37 38 39 41 42 44 45 45 44 43 41 38 38 39 40 40 41 42 43 42 41 41 40 38 37 35 32 30 28 26 25 25 25
17 16 15 13 11 10 11 12 11 9 8 7 6 6 7 7 8 9 10 11 11 10 11 12 13 13 14 15 17 19 21 22 23 23 23 23 24 23 24 25 27 28 30 31 33 31 27 23 22 23 26 30 34 35 36 38 39 40 42 44 44 43 41 38 36 37 39 40 41 41 41 41 40 40 40 41 40 40 37 34 31 28 27 27 26
17 16 14 12 11 10 12 12 11 9 7 6 4 4 4 5 6 7 8 8 9 9 10 11 12 12 13 13 14 16 18 20 22 23 22 23 23 23 24 26 27 28 30 31 32 32 30 26 22 22 24 28 32 34 34 35 37 37 39 40 41 41 41 38 37 36 37 39 40 40 39 40 39 39 39 39 39 40 40 38 35 31 29 29 28
17 15 13 11 10 10 11 12 10 8 7 5 3 2 1 2 4 5 6 7 8 8 8 9 11 12 12 12 13 14 16 18 20 21 22 23 23 24 26 27 28 29 30 30 30 30 30 29 26 25 27 29 31 32 31 33 34 35 36 37 38 38 40 40 38 36 36 37 38 38 37 38 39 39 39 39 38 38 38 37 37 36 34 33 33
16 14 12 10 9 8 10 11 9 7 5 3 1 0 1 1 1 3 5 6 7 7 7 8 10 12 13 13 13 13 15 16 18 20 21 22 23 25 27 28 28 28 28 29 29 28 28 29 29 29 29 30 30 30 29 30 31 31 32 34 35 36 38 39 38 36 36 36 36 36 36 36 38 38 39 40 40 38 35 33 34 35 35 36 36
15 14 12 10 8 8 8 9 8 6 4 3 1 1 2 2 2 1 3 4 5 6 6 7 9 10 11 13 13 13 13 14 16 17 19 20 22 25 27 27 27 27 27 27 27 27 27 27 27 28 28 29 29 28 28 27 28 29 30 32 33 33 34 35 36 36 36 35 35 34 34 35 37 39 40 41 41 40 37 33 31 30 31 32 33
15 14 11 9 8 8 8 8 7 6 4 3 2 1 3 3 4 3 3 3 4 4 5 6 8 9 10 11 12 13 13 13 14 15 17 19 21 23 25 26 26 27 26 25 25 26 26 26 26 26 27 27 27 27 26 26 26 26 27 29 31 32 32 33 34 34 35 36 35 34 33 33 34 37 39 40 41 40 38 36 33 30 29 31 32
15 14 12 9 8 7 8 8 7 6 5 3 2 3 4 4 4 4 3 3 3 4 4 5 6 7 9 10 12 13 13 13 14 15 16 18 19 21 22 24 25 26 26 25 24 24 24 25 25 26 26 26 26 26 26 24 23 23 25 26 28 29 31 32 33 34 34 35 34 33 32 32 32 34 35 36 37 38 38 37 35 33 31 31 32
17 15 13 11 8 7 8 9 8 7 5 4 4 4 4 4 4 4 3 3 4 4 4 4 5 6 8 10 11 12 12 12 13 14 15 16 17 18 19 21 22 24 25 25 24 23 23 23 24 25 25 25 25 24 24 24 22 21 22 24 25 26 28 29 30 31 33 33 33 32 31 31 30 31 32 32 33 34 35 36 35 34 32 30 29
15 15 13 11 9 8 9 10 9 7 6 5 5 4 4 4 4 4 3 3 4 4 5 5 5 6 8 9 10 11 12 12 13 14 14 15 16 16 17 18 20 21 23 24 24 23 22 21 22 23 24 24 25 24 23 23 22 21 21 21 22 23 24 25 26 28 29 31 32 31 31 30 30 29 29 29 29 30 31 32 33 32 32 30 27
13 13 12 11 10 9 10 10 9 8 7 6 5 4 3 3 3 4 3 3 3 4 4 5 5 6 7 9 9 10 11 11 12 13 14 14 14 14 15 16 17 18 20 21 22 23 22 21 21 21 22 23 24 24 24 23 22 21 20 19 20 21 22 23 24 24 26 28 29 29 29 29 29 28 27 26 26 26 27 28 29 29 30 29 27
12 12 12 12 11 11 11 11 10 9 7 6 6 4 3 2 2 3 2 2 1 2 3 4 5 5 6 8 9 9 10 10 11 12 13 13 13 13 13 14 15 16 17 18 19 21 22 21 20 19 20 21 22 23 23 23 22 21 19 18 18 18 19 21 22 22 23 24 25 26 27 27 27 28 27 25 24 24 24 24 25 26 26 26 26
12 12 12 12 12 12 12 11 11 10 8 7 6 5 4 3 2 2 2 2 1 2 3 3 4 5 6 7 8 9 9 9 10 11 12 13 12 12 12 13 13 13 14 15 16 18 20 21 20 19 18 19 20 21 21 22 22 21 20 19 18 17 17 18 19 20 21 21 22 23 24 24 24 25 26 25 24 23 22 22 22 23 23 24 24
14 13 13 12 12 12 11 11 11 11 9 7 6 6 5 4 3 2 2 3 2 3 3 4 5 5 6 7 7 8 9 9 9 10 11 12 12 12 12 12 12 12 13 13 14 15 17 18 19 19 18 18 18 19 20 21 21 21 21 20 20 19 18 17 17 17 17 18 19 20 20 21 22 22 22 23 23 23 22 20 19 19 20 21 22
15 15 14 14 13 12 11 11 12 11 10 8 7 7 6 6 5 4 3 4 4 4 5 5 6 6 7 8 8 8 8 9 9 9 10 11 11 12 11 11 11 11 12 12 12 13 14 15 16 17 18 18 18 18 19 20 21 21 21 21 20 20 19 18 17 16 15 15 16 16 17 17 18 18 18 18 19 20 20 19 18 17 17 17 19
17 18 17 15 15 14 12 11 11 11 11 10 9 8 8 7 7 7 6 6 6 7 7 7 8 8 8 9 9 9 8 8 8 8 8 9 10 11 11 11 11 11 11 11 11 12 12 13 14 14 15 16 16 17 17 18 19 20 21 21 21 21 20 19 18 17 16 16 15 15 14 15 15 15 15 14 14 16 17 17 16 16 15 15 15
18 19 19 17 16 16 14 12 11 12 12 11 11 11 10 10 10 9 9 8 8 9 9 9 10 10 10 10 10 10 9 8 7 7 7 8 9 10 10 10 11 10 10 10 10 10 11 12 12 12 13 13 13 14 15 16 17 18 19 20 20 21 21 21 20 19 17 16 16 15 14 14 13 13 13 12 12 12 13 13 14 13 13 13 12
15 17 18 19 18 18 16 15 13 13 13 13 13 13 13 13 13 12 12 12 11 11 11 11 11 12 12 12 12 11 11 9 8 7 7 7 8 9 9 9 10 10 10 10 9 9 10 10 11 11 12 12 12 12 13 13 14 15 17 18 18 19 20 21 21 20 19 18 17 16 15 14 13 12 11 11 10 9 9 9 9 10 10 10 9
14 14 16 18 19 19 18 17 16 15 15 15 15 15 15 15 16 16 15 15 14 14 13 13 13 13 14 14 14 13 12 11 9 8 7 7 8 8 8 8 8 9 9 9 9 9 9 10 10 10 11 11 12 12 12 12 12 13 14 15 16 18 19 19 20 21 21 20 19 18 16 15 14 13 12 11 9 8 7 5 6 6 7 7 6
16 15 15 17 18 19 19 18 18 17 17 17 18 18 18 18 18 18 17 17 17 16 15 15 15 15 15 15 16 15 14 13 11 9 8 8 8 8 8 8 8 7 8 8 9 9 10 10 10 10 10 11 11 11 12 12 12 12 12 13 14 16 17 18 19 19 21 21 21 20 19 17 15 14 13 12 11 9 7 5 4 3 4 4 4
Wind_Direction
27 23 23 22 22 28 33 36 39 39 39 40 37 33 30 26 23 20 17 16 14 12 11 9 9 6 3 0 358 357 355 353 352 350 348 346 344 342 340 338 336 333 331 329 327 324 321 320 318 316 313 310 306 302 298 293 288 282 277 275 274 276 278 277 274 275 276 274 273 274 275 277 277 272 265 259 253 251 250 248 248 248 244 240 238
20 22 23 23 27 34 40 44 46 44 42 41 40 38 34 30 28 23 19 18 16 13 11 10 8 6 3 2 1 0 360 359 358 357 355 353 350 347 345 342 339 335 333 331 328 326 325 323 322 319 316 314 312 308 303 298 293 288 283 276 271 268 271 276 278 279 280 279 277 275 273 271 272 272 267 261 257 255 252 247 245 246 244 242 240
18 21 22 27 36 42 48 52 52 51 50 48 46 43 39 35 32 27 24 23 20 18 16 15 13 11 8 7 7 6 7 7 6 4 3 2 0 358 355 352 348 344 341 337 334 331 328 326 326 324 322 320 316 314 312 307 301 295 288 281 275 271 269 271 276 281 283 284 283 279 274 270 269 268 266 265 261 258 255 249 245 245 244 244 243
19 20 23 36 50 57 62 64 64 63 60 56 52 47 42 39 34 31 29 26 24 22 21 20 18 16 15 14 12 12 12 12 11 9 8 7 5 3 1 359 356 353 349 345 341 336 332 329 327 326 325 323 321 319 317 313 310 305 298 290 283 276 272 270 269 272 278 283 284 282 277 272 268 265 266 266 264 261 257 250 246 246 245 245 245
18 17 26 45 62 68 70 69 67 65 62 59 55 50 45 42 38 36 34 31 30 29 27 25 23 21 19 18 16 14 13 11 10 10 9 8 5 3 2 0 358 356 354 350 347 342 337 333 329 327 325 323 323 322 320 317 315 312 307 302 296 288 280 275 271 269 270 272 276 280 279 275 270 266 264 264 262 261 258 252 246 245 244 244 244
17 18 30 51 66 69 68 66 64 62 61 59 56 53 50 46 43 42 39 36 34 31 28 26 24 21 19 17 15 13 11 10 9 9 8 6 4 2 1 359 357 356 354 351 348 345 341 337 332 329 326 325 323 321 320 319 316 313 309 306 305 301 295 288 281 276 272 269 268 270 273 275 273 266 261 260 260 259 258 256 251 244 242 243 242
19 27 42 59 67 66 65 64 63 63 63 61 59 56 53 49 46 43 40 36 33 30 27 24 21 19 17 15 14 13 11 10 9 9 8 6 4 3 1 359 357 356 354 351 348 345 343 340 336 331 328 326 324 321 319 317 314 311 309 307 305 303 301 299 296 289 281 274 269 266 267 271 272 269 266 264 262 259 255 254 253 248 244 245 243
29 46 63 70 69 66 66 67 68 68 66 63 60 56 52 49 45 41 37 34 31 27 24 21 18 17 15 14 13 13 13 12 10 9 6 5 4 3 2 1 359 357 355 352 348 346 343 341 337 333 330 326 323 321 319 316 313 310 308 308 305 301 298 300 301 299 293 285 276 270 268 268 268 269 269 262 258 258 254 251 253 250 246 246 246
65 74 78 77 72 70 74 76 75 72 68 63 59 54 51 47 43 40 36 32 28 25 21 19 17 16 15 14 14 15 16 15 13 9 6 5 4 4 3 2 1 359 357 354 351 347 345 342 338 333 329 325 323 321 318 317 315 312 309 308 307 303 300 297 298 299 297 293 285 277 272 268 264 265 264 256 254 258 256 254 255 253 250 249 248
92 91 87 83 81 82 84 82 78 72 66 62 57 53 49 45 41 38 34 30 27 24 21 19 18 18 17 16 17 19 19 17 15 11 8 6 5 4 4 4 4 1 359 357 354 351 347 343 340 335 331 327 324 320 318 315 313 311 309 308 307 305 302 298 296 295 295 293 289 284 278 271 263 259 259 259 260 260 258 257 258 257 253 249 247
103 100 95 92 92 92 89 83 77 71 66 61 57 52 47 44 41 37 34 31 29 26 24 23 22 21 22 21 22 24 23 19 15 13 11 9 6 5 6 6 6 5 2 359 356 353 350 348 345 343 340 336 330 325 319 313 310 307 305 305 304 302 299 297 294 293 294 292 288 284 280 275 267 260 257 260 261 257 256 258 259 255 250 245 244
107 103 100 100 100 96 90 84 77 72 66 60 56 52 47 45 42 39 37 35 33 31 29 28 26 25 26 26 26 26 23 18 16 14 13 11 8 7 8 9 9 8 5 2 358 355 355 354 353 351 349 346 340 334 327 318 312 307 303 301 299 296 295 295 294 294 295 294 290 283 277 275 272 264 257 256 256 252 253 257 257 255 253 249 247
108 105 105 105 102 96 90 85 78 71 65 60 56 52 50 49 46 44 43 40 37 36 33 32 30 29 28 27 27 26 21 17 15 14 13 12 9 10 11 12 12 12 9 7 3 1 0 358 355 353 352 349 346 340 335 328 321 313 306 302 300 297 294 291 293 297 299 297 291 284 277 274 271 267 259 253 252 255 256 256 256 256 254 251 250
114 113 111 108 103 96 90 84 77 70 65 60 58 56 54 52 50 47 45 43 41 39 37 35 33 31 30 30 28 25 20 16 14 14 14 13 11 13 14 14 14 13 12 11 9 8 6 1 356 352 349 348 346 341 336 332 329 325 318 308 304 303 299 292 295 303 304 300 293 286 280 274 268 265 261 252 246 251 256 256 257 258 255 255 257
119 117 113 108 103 96 89 83 77 72 67 64 62 60 57 54 51 48 46 43 42 41 39 38 36 33 32 31 28 25 22 18 16 16 17 16 14 16 17 16 15 14 12 13 12 11 9 4 356 350 347 345 343 340 336 333 331 329 326 319 312 309 305 301 302 305 303 297 292 287 284 279 270 263 259 252 242 243 251 257 258 260 261 262 260
119 116 113 108 102 96 89 84 79 76 72 68 66 62 59 55 52 49 47 45 43 41 39 38 37 35 34 31 28 27 24 20 18 18 18 17 18 19 19 17 16 14 13 12 12 12 10 5 357 351 346 342 339 339 337 334 333 331 327 324 319 314 310 308 306 306 302 293 286 284 283 282 275 263 255 249 240 237 244 254 257 256 257 256 251
120 117 114 108 102 96 91 87 84 81 76 71 67 63 59 56 52 49 48 46 45 42 40 38 36 35 34 32 29 28 26 23 20 19 19 19 20 21 20 18 16 13 13 12 11 11 11 7 0 354 349 344 339 337 336 335 336 335 330 326 323 319 316 313 307 303 304 298 286 281 282 284 278 263 254 250 243 236 240 252 258 256 255 252 247
121 119 114 109 105 99 96 93 90 84 77 72 68 63 60 56 53 50 48 47 46 45 43 41 38 36 35 33 31 30 28 24 21 20 20 20 21 21 20 18 16 13 12 11 10 10 10 8 5 360 354 349 344 339 337 337 338 339 338 332 326 322 320 317 310 306 310 310 295 282 282 289 284 265 253 249 243 237 240 249 255 256 256 254 250
123 120 115 112 109 105 103 100 93 84 77 72 68 64 60 57 54 51 50 48 47 46 44 43 41 39 37 35 34 31 28 25 22 21 21 20 20 20 19 17 15 13 12 11 10 10 9 8 8 5 359 354 350 345 342 341 342 345 346 339 330 327 325 322 319 318 319 316 304 286 279 280 274 259 248 241 235 236 242 246 249 251 252 254 253
125 122 117 115 113 111 109 103 94 86 79 73 69 64 61 58 55 53 51 50 48 46 45 44 43 42 39 37 35 32 29 26 23 22 22 21 19 18 17 16 14 14 14 13 12 12 11 10 9 6 4 2 358 354 351 349 348 352 354 351 345 340 334 328 330 333 328 321 313 298 280 264 256 253 251 245 237 238 243 246 248 249 249 250 251
126 122 119 118 117 115 112 105 97 89 81 75 70 65 61 59 56 53 51 49 48 46 45 44 44 42 40 38 36 33 30 28 26 25 23 21 19 17 17 16 14 15 16 16 15 14 13 14 12 8 8 9 6 3 1 357 355 359 5 9 5 358 354 356 2 2 355 348 344 326 292 263 250 247 247 246 243 243 246 246 246 248 249 248 246
126 123 121 121 118 115 112 107 99 92 84 78 72 66 62 59 55 53 50 47 45 44 43 42 42 41 39 38 35 34 32 30 29 26 24 22 20 18 19 17 15 17 19 18 19 19 17 18 16 11 12 14 13 12 10 6 3 3 9 14 15 16 21 23 21 21 21 24 29 31 28 19 337 246 235 234 237 242 246 247 247 249 251 251 245
126 124 123 121 116 113 111 106 101 95 87 80 75 68 63 59 56 53 49 45 43 41 40 39 40 39 38 37 34 33 33 32 30 27 24 22 21 19 20 20 18 20 22 22 22 22 20 20 20 18 17 18 18 19 19 16 13 11 11 14 16 18 25 27 28 29 27 26 31 35 34 32 32 35 43 70 116 192 233 244 250 252 252 253 250
127 125 122 118 114 111 108 104 101 97 90 84 78 71 65 60 56 52 47 44 41 40 38 37 37 37 36 35 33 32 32 31 28 26 24 22 21 18 19 20 19 21 24 25 24 23 22 22 24 25 24 22 22 23 25 24 22 20 20 22 23 23 25 29 32 34 31 27 29 32 31 28 27 25 23 27 40 51 56 61 267 259 250 247 247
128 127 124 119 115 110 106 102 99 95 91 87 81 75 68 61 56 51 47 44 41 40 38 36 36 35 35 33 32 31 31 30 26 25 24 22 20 18 18 18 19 21 25 26 25 24 23 23 25 28 28 27 26 26 27 27 27 26 23 24 26 28 29 30 33 35 36 34 34 35 35 34 33 29 18 10 15 30 39 44 47 39 23 258 245
130 130 128 124 119 113 107 103 98 95 92 87 82 77 70 63 58 53 49 45 41 40 38 37 36 35 34 33 32 31 30 28 25 23 22 20 18 16 16 17 17 20 23 24 22 22 22 23 25 28 30 30 29 29 28 27 28 28 27 25 28 32 34 32 33 35 38 39 39 38 39 40 41 39 30 19 22 33 37 35 31 29 29 24 348
133 132 131 129 125 120 113 107 101 96 90 85 80 75 69 64 60 54 50 47 43 40 38 37 36 35 34 34 34 33 30 27 25 23 21 19 16 14 15 16 17 18 20 20 21 23 24 24 25 27 29 30 30 31 30 28 27 28 28 27 29 35 39 38 36 37 39 41 42 43 42 42 42 41 38 36 38 41 41 35 29 29 27 19 15
136 134 133 132 132 128 120 112 105 98 90 83 77 73 69 66 61 55 50 47 45 43 40 38 35 34 33 34 35 34 31 28 27 25 21 19 18 18 19 18 19 20 20 20 23 25 26 26 26 25 26 28 29 29 29 29 28 28 28 28 29 34 38 39 38 38 39 41 44 46 45 44 45 45 44 43 43 43 42 38 38 41 39 38 72
141 139 136 135 138 137 130 122 114 105 96 86 76 73 71 66 61 55 48 45 46 45 44 41 37 34 33 33 34 34 32 30 29 28 26 25 26 28 28 26 26 25 22 21 24 26 26 27 27 26 26 25 26 27 27 27 27 29 29 30 30 32 36 38 38 37 37 39 42 45 47 47 48 49 50 49 49 49 52 56 60 63 69 82 93
153 151 144 139 141 142 138 133 123 114 106 93 80 76 72 65 60 54 47 44 43 43 44 44 41 38 36 34 34 34 33 32 31 30 31 31 32 32 32 30 30 28 23 24 27 27 25 27 27 27 27 25 25 26 26 25 26 28 29 30 32 33 36 38 38 36 37 39 42 45 48 49 50 51 53 55 56 58 62 70 77 83 88 92 94
166 162 154 149 146 145 144 141 132 122 113 100 86 79 72 63 56 51 47 45 42 40 42 43 41 40 39 36 35 34 33 33 32 31 31 31 31 30 29 29 30 28 25 27 30 28 25 25 25 25 26 26 26 26 26 25 26 27 28 30 33 34 35 36 36 36 38 41 43 45 47 48 50 51 54 57 60 62 66 70 76 84 90 95 97
171 165 160 156 152 149 150 149 143 133 124 110 94 82 72 62 54 48 44 43 41 39 40 39 38 38 38 36 35 34 32 31 31 31 31 30 30 28 26 26 28 28 28 30 32 29 25 23 22 21 23 25 27 28 27 27 27 27 28 30 32 35 36 36 37 39 42 43 43 45 46 47 48 51 52 55 58 62 65 69 73 78 85 92 97
167 163 160 160 158 154 154 154 151 143 134 122 107 89 75 65 56 47 41 38 37 38 39 37 34 34 34 34 33 32 31 30 30 30 30 30 28 26 25 26 27 28 29 31 31 30 27 24 21 21 22 23 26 28 29 28 28 28 29 30 32 34 36 37 39 43 46 45 43 43 45 46 47 49 50 52 54 57 61 65 70 76 81 85 91
163 161 160 161 160 158 157 158 157 152 144 135 122 104 84 69 57 50 45 40 36 36 36 34 32 31 31 31 32 32 31 30 29 28 28 29 27 25 25 27 28 29 30 31 30 29 28 26 23 21 21 23 26 29 30 29 28 29 30 31 32 35 36 38 42 46 48 47 44 43 44 45 45 46 47 49 50 53 56 59 63 70 76 80 84
162 162 161 159 159 160 162 165 163 157 150 144 136 121 93 68 53 45 42 42 41 41 37 33 32 31 29 28 29 29 29 29 28 27 26 26 25 25 26 27 28 28 29 29 29 29 28 27 26 24 24 24 26 28 30 30 29 29 30 31 33 35 37 38 41 44 47 47 45 45 45 46 46 47 47 48 48 49 51 54 58 65 71 75 77
167 167 166 164 164 166 170 173 170 161 155 159 167 214 296 296 21 31 30 31 36 41 40 34 31 30 29 27 25 25 26 27 26 26 25 24 24 26 27 28 27 27 27 26 27 28 28 27 27 26 26 25 26 27 29 31 31 30 31 33 34 36 37 38 39 41 43 44 45 46 48 49 49 49 50 50 49 48 49 52 58 64 67 69 70
178 175 172 172 175 179 182 183 181 177 184 200 213 287 303 281 273 327 5 12 22 31 34 33 31 29 27 26 24 21 21 23 24 24 23 23 24 26 28 28 28 27 26 25 25 27 28 27 26 26 26 26 26 27 28 31 32 32 33 34 35 36 38 39 40 41 42 43 43 45 47 49 50 51 51 51 51 50 50 53 59 64 65 65 66
186 182 181 183 186 190 197 199 197 199 213 221 228 299 315 291 271 278 314 342 2 15 19 21 24 25 24 23 23 20 18 19 21 21 20 21 23 25 26 27 27 28 27 25 25 27 28 27 27 26 26 26 26 27 28 30 32 34 34 34 35 36 37 39 40 41 42 42 43 44 45 47 49 51 51 50 51 51 52 53 57 61 63 65 68
190 189 191 194 194 198 210 216 213 215 226 235 252 298 316 300 273 268 288 313 333 351 1 4 9 13 15 17 19 19 18 15 15 16 18 20 22 23 24 24 25 27 28 26 25 26 27 28 28 27 26 26 26 27 28 29 32 35 36 35 35 36 37 38 39 39 41 42 42 42 43 44 46 49 50 49 49 50 53 54 56 58 61 65 68
193 193 194 198 202 209 220 225 227 232 242 251 264 291 308 296 270 262 274 296 316 332 343 347 349 356 3 6 9 13 15 14 12 11 12 16 19 21 22 22 22 24 27 27 25 24 25 26 27 27 26 26 26 27 28 29 32 35 37 37 36 37 38 39 39 39 39 40 40 41 42 43 44 47 49 49 48 49 51 53 55 56 59 63 68
196 197 198 202 209 219 225 228 233 242 250 256 266 287 303 290 265 257 266 288 310 325 333 336 337 343 352 357 359 2 6 9 10 8 7 10 14 17 19 20 20 21 24 25 25 24 23 23 24 24 25 25 27 28 29 30 32 34 36 37 37 38 40 40 39 38 39 39 38 39 41 43 44 45 47 49 49 49 51 53 54 55 57 60 65
203 204 205 209 218 227 232 233 236 243 252 259 264 280 304 288 253 250 264 284 306 324 331 332 332 336 342 347 350 353 356 358 3 5 4 4 8 12 14 16 17 18 19 22 24 24 23 22 21 21 22 23 25 27 29 30 31 32 34 35 36 37 38 39 38 37 39 39 39 39 40 42 44 45 46 48 49 50 52 54 55 54 54 55 58
211 214 217 221 229 234 237 238 239 243 251 259 258 266 303 313 253 246 260 278 312 337 336 331 333 337 338 338 341 345 346 346 350 356 360 0 1 5 8 10 12 14 15 18 21 22 23 23 22 21 20 21 22 24 27 29 30 32 33 33 33 33 35 35 35 35 37 39 39 39 39 41 43 44 45 47 49 50 51 54 56 56 55 54 54
217 222 226 231 234 235 235 237 238 240 247 252 248 252 277 306 290 251 250 268 334 6 355 342 342 343 339 334 332 334 335 336 338 343 351 355 356 358 0 2 4 7 10 13 17 19 21 23 24 23 22 21 20 22 25 27 29 31 31 31 31 31 30 30 30 29 30 33 36 37 37 37 40 42 43 45 47 48 49 52 55 57 57 55 55
219 224 230 234 235 234 236 238 237 238 242 244 243 247 262 280 287 267 253 268 301 334 347 348 349 349 346 340 331 326 327 330 331 333 340 347 351 352 353 356 359 2 4 7 11 15 18 21 23 24 24 23 22 23 25 27 28 29 30 29 29 28 26 25 24 22 22 25 29 31 31 32 35 37 39 41 43 46 48 50 53 57 59 58 56
222 226 232 235 234 235 238 236 233 235 238 237 238 246 254 260 264 266 264 270 285 302 319 329 335 340 344 343 337 329 325 325 325 326 331 338 343 346 348 351 354 358 359 359 3 7 12 17 20 22 24 25 26 27 29 30 30 31 31 30 30 28 26 25 23 20 19 20 23 24 25 27 30 33 35 38 41 44 47 50 52 55 58 60 59
228 231 235 236 234 235 237 234 231 235 238 236 237 243 249 251 255 260 265 271 279 287 298 308 314 322 330 335 338 334 327 324 323 324 327 331 334 337 342 345 348 352 354 354 355 358 2 7 12 17 19 22 24 27 30 31 31 31 31 30 30 29 27 26 24 21 20 20 20 20 20 23 27 30 32 35 40 44 46 48 50 52 55 59 62
233 235 236 235 234 233 235 237 237 240 241 239 238 241 246 251 256 260 265 271 277 282 288 295 301 306 311 320 329 332 328 325 327 328 329 330 329 329 331 336 339 343 346 348 349 350 353 356 359 4 9 12 15 18 22 24 25 26 25 25 25 25 25 25 24 22 20 20 20 20 20 20 22 25 28 31 35 41 44 45 48 51 53 55 58
238 237 234 233 233 234 237 240 244 247 248 247 246 247 250 255 258 261 265 269 274 278 283 287 292 295 299 304 313 321 323 321 322 328 331 331 328 325 323 324 328 333 336 339 342 344 346 347 348 351 354 358 1 4 8 11 13 15 16 17 17 19 21 22 23 23 22 20 20 19 20 21 20 21 22 26 30 34 39 45 51 55 55 52 53
240 240 235 232 233 236 240 243 246 249 252 253 253 256 259 260 261 263 265 268 271 276 281 283 285 288 291 294 298 306 312 312 310 314 322 326 326 326 323 317 316 321 326 330 334 337 339 341 341 341 341 344 347 350 354 357 0 3 6 8 9 11 14 17 20 22 22 22 21 19 18 18 19 19 19 20 23 26 31 41 54 62 61 58 59
239 242 241 238 237 238 241 243 246 249 254 256 258 261 264 266 266 266 267 268 270 273 278 282 283 284 286 288 289 292 298 302 300 300 306 312 317 322 323 319 313 312 314 320 325 328 330 333 335 334 333 334 335 336 339 343 347 351 355 358 0 3 6 9 13 15 17 18 19 19 18 16 15 15 15 16 17 19 21 25 36 56 63 64 66
Height
1548 1548 1547 1546 1546 1545 1544 1543 1542 1542 1542 1542 1542 1542 1542 1542 1542 1541 1541 1541 1541 1540 1540 1539 1538 1537 1537 1536 1535 1534 1533 1531 1530 1528 1527 1526 1524 1523 1522 1520 1519 1518 1516 1515 1513 1512 1510 1509 1507 1506 1505 1503 1501 1500 1499 1498 1497 1496 1495 1494 1493 1493 1492 1491 1488 1483 1482 1485 1485 1485 1486 1486 1485 1485 1486 1486 1487 1488 1489 1490 1491 1491 1492 1492 1493
1549 1548 1547 1547 1546 1545 1544 1543 1543 1542 1542 1542 1542 1542 1542 1542 1542 1542 1541 1541 1541 1540 1540 1539 1538 1537 1536 1535 1534 1533 1532 1530 1529 1527 1526 1525 1523 1522 1520 1519 1517 1516 1514 1512 1511 1509 1507 1506 1505 1504 1502 1501 1499 1497 1496 1494 1493 1492 1491 1490 1489 1488 1488 1488 1486 1482 1479 1479 1481 1481 1481 1482 1481 1481 1482 1482 1482 1484 1484 1486 1487 1487 1487 1488 1489
1549 1548 1548 1547 1546 1545 1544 1544 1543 1543 1543 1542 1542 1542 1542 1542 1542 1542 1542 1541 1541 1540 1540 1539 1538 1537 1536 1535 1534 1533 1531 1530 1528 1527 1525 1524 1522 1521 1519 1518 1516 1514 1512 1510 1509 1507 1505 1503 1502 1501 1499 1498 1496 1495 1493 1491 1490 1488 1487 1487 1485 1484 1484 1484 1483 1481 1477 1475 1476 1477 1477 1477 1477 1477 1477 1478 1478 1479 1479 1480 1482 1482 1483 1484 1485
1549 1549 1548 1547 1546 1545 1544 1544 1544 1544 1544 1543 1543 1543 1543 1543 1543 1542 1542 1542 1541 1541 1540 1539 1538 1537 1535 1534 1533 1532 1530 1529 1528 1526 1524 1523 1521 1519 1518 1516 1515 1513 1511 1509 1507 1506 1504 1502 1500 1498 1497 1495 1493 1492 1490 1489 1487 1485 1484 1483 1481 1480 1479 1479 1478 1478 1475 1471 1471 1472 1472 1472 1472 1472 1473 1473 1474 1474 1474 1475 1476 1477 1478 1479 1480
1549 1548 1548 1547 1546 1545 1544 1545 1545 1544 1544 1544 1544 1544 1543 1543 1543 1543 1542 1542 1541 1541 1540 1539 1538 1536 1535 1534 1533 1531 1530 1529 1527 1525 1524 1522 1520 1518 1517 1515 1513 1511 1510 1508 1506 1505 1503 1501 1499 1497 1495 1493 1491 1489 1488 1486 1484 1483 1481 1479 1478 1476 1475 1474 1474 1473 1471 1468 1466 1467 1468 1468 1468 1468 1469 1469 1469 1469 1469 1470 1471 1472 1473 1474 1475
1549 1548 1548 1547 1546 1546 1545 1545 1545 1545 1545 1545 1545 1544 1544 1544 1543 1543 1543 1542 1541 1541 1540 1539 1538 1536 1535 1534 1533 1532 1530 1529 1527 1525 1523 1521 1520 1518 1516 1514 1512 1510 1509 1507 1505 1503 1502 1500 1498 1496 1494 1492 1490 1488 1486 1484 1482 1480 1478 1476 1475 1473 1471 1470 1469 1468 1467 1464 1462 1462 1463 1463 1463 1463 1464 1465 1465 1465 1465 1465 1466 1467 1467 1468 1470
1549 1548 1548 1547 1547 1546 1546 1546 1546 1546 1546 1546 1545 1545 1544 1544 1544 1543 1543 1542 1542 1541 1540 1539 1538 1537 1536 1535 1533 1532 1530 1529 1527 1525 1523 1521 1519 1517 1515 1514 1511 1509 1508 1506 1504 1502 1500 1499 1497 1495 1493 1490 1488 1486 1484 1482 1479 1477 1476 1474 1472 1470 1468 1466 1465 1463 1462 1460 1458 1457 1457 1458 1458 1458 1459 1460 1460 1460 1460 1460 1460 1461 1462 1463 1464
1549 1549 1548 1548 1547 1547 1547 1547 1547 1547 1547 1546 1546 1546 1545 1545 1544 1544 1543 1543 1542 1541 1540 1539 1538 1537 1536 1535 1534 1532 1531 1529 1526 1524 1523 1521 1519 1517 1515 1513 1510 1509 1507 1505 1503 1501 1499 1497 1495 1493 1491 1489 1487 1485 1482 1480 1477 1475 1473 1471 1469 1467 1465 1463 1461 1459 1458 1456 1454 1452 1452 1452 1453 1453 1454 1455 1454 1453 1455 1455 1455 1456 1458 1458 1459
1549 1549 1549 1548 1548 1548 1548 1548 1548 1548 1548 1547 1547 1547 1546 1545 1545 1544 1544 1543 1542 1541 1540 1539 1538 1537 1536 1535 1534 1532 1531 1529 1527 1525 1523 1521 1519 1517 1514 1512 1510 1508 1506 1503 1501 1499 1497 1496 1494 1492 1490 1487 1485 1483 1480 1478 1475 1473 1470 1468 1466 1464 1461 1460 1457 1455 1453 1451 1449 1448 1447 1446 1447 1448 1448 1448 1448 1448 1450 1451 1451 1452 1453 1453 1454
1549 1550 1550 1549 1549 1549 1550 1549 1550 1549 1549 1549 1548 1548 1547 1546 1546 1545 1544 1543 1543 1542 1541 1539 1538 1537 1536 1536 1534 1533 1532 1530 1529 1527 1524 1522 1519 1516 1514 1511 1509 1506 1504 1502 1500 1498 1496 1494 1492 1490 1488 1485 1483 1480 1478 1476 1473 1471 1468 1466 1463 1460 1457 1455 1453 1452 1449 1447 1445 1444 1442 1440 1440 1442 1442 1442 1443 1445 1445 1446 1446 1447 1448 1448 1448
1549 1550 1551 1550 1550 1551 1551 1551 1551 1551 1550 1550 1549 1549 1548 1547 1546 1546 1545 1544 1543 1542 1541 1540 1538 1538 1537 1536 1535 1534 1533 1531 1530 1528 1525 1522 1519 1516 1513 1511 1508 1506 1503 1501 1498 1496 1494 1491 1489 1487 1485 1483 1480 1477 1474 1472 1470 1467 1465 1463 1461 1458 1454 1451 1448 1447 1445 1442 1440 1439 1437 1434 1434 1436 1436 1437 1438 1439 1439 1440 1441 1442 1443 1443 1443
1550 1551 1552 1552 1552 1552 1552 1552 1552 1552 1552 1552 1551 1550 1549 1548 1548 1547 1546 1545 1544 1542 1541 1540 1539 1538 1537 1537 1535 1534 1533 1532 1530 1528 1525 1522 1519 1516 1514 1511 1508 1506 1503 1500 1498 1494 1492 1489 1487 1485 1483 1480 1477 1473 1471 1468 1466 1463 1460 1458 1457 1454 1451 1448 1444 1442 1439 1436 1433 1432 1431 1430 1429 1429 1431 1432 1433 1433 1434 1435 1435 1436 1437 1438 1439
1550 1552 1553 1553 1553 1553 1553 1554 1554 1554 1554 1553 1553 1552 1551 1550 1549 1548 1547 1546 1544 1543 1541 1540 1539 1538 1537 1537 1536 1535 1534 1532 1530 1528 1525 1523 1520 1517 1514 1511 1509 1506 1504 1501 1497 1494 1491 1488 1486 1483 1481 1478 1475 1471 1467 1464 1461 1459 1456 1453 1450 1449 1447 1444 1440 1437 1434 1430 1427 1424 1424 1425 1423 1422 1425 1427 1428 1428 1429 1429 1430 1431 1431 1432 1433
1550 1553 1554 1554 1554 1554 1554 1555 1555 1555 1555 1555 1554 1553 1552 1551 1550 1549 1548 1546 1545 1543 1542 1541 1540 1539 1538 1538 1537 1536 1534 1532 1530 1528 1525 1523 1520 1517 1514 1511 1509 1506 1503 1500 1497 1494 1491 1489 1486 1483 1480 1477 1473 1469 1465 1461 1457 1454 1451 1448 1444 1442 1440 1438 1435 1432 1428 1425 1421 1417 1417 1418 1416 1415 1418 1421 1423 1423 1424 1424 1425 1426 1426 1427 1428
1551 1553 1555 1555 1555 1555 1555 1556 1556 1557 1557 1556 1556 1554 1553 1552 1551 1550 1548 1547 1545 1544 1543 1543 1542 1541 1540 1539 1538 1536 1534 1532 1530 1528 1525 1523 1520 1516 1514 1511 1509 1506 1503 1500 1497 1495 1492 1489 1486 1483 1480 1476 1472 1468 1464 1459 1455 1451 1447 1443 1439 1436 1434 1432 1429 1427 1424 1420 1416 1411 1409 1409 1408 1408 1411 1414 1416 1418 1419 1420 1421 1421 1422 1423 1424
1553 1554 1555 1556 1556 1556 1556 1557 1557 1558 1558 1558 1557 1556 1554 1553 1552 1551 1549 1548 1547 1546 1544 1544 1543 1542 1541 1540 1538 1536 1535 1532 1530 1527 1525 1523 1519 1516 1514 1511 1508 1505 1502 1500 1497 1495 1492 1490 1486 1483 1480 1476 1472 1468 1463 1458 1453 1448 1444 1439 1435 1431 1428 1426 1423 1421 1418 1415 1411 1406 1403 1400 1400 1400 1403 1406 1409 1413 1415 1415 1416 1417 1418 1417 1418
1554 1555 1556 1556 1556 1557 1557 1558 1559 1559 1559 1559 1558 1557 1556 1555 1553 1552 1551 1549 1548 1547 1546 1545 1544 1543 1542 1540 1539 1537 1535 1533 1530 1528 1525 1522 1519 1516 1514 1511 1508 1505 1502 1500 1497 1495 1493 1490 1487 1483 1479 1475 1471 1466 1462 1456 1451 1447 1441 1436 1431 1426 1423 1420 1417 1415 1412 1408 1404 1401 1398 1394 1392 1393 1395 1399 1402 1407 1409 1409 1410 1412 1412 1411 1412
1555 1556 1556 1556 1557 1558 1559 1560 1560 1560 1560 1559 1559 1558 1557 1556 1555 1553 1552 1551 1550 1549 1548 1547 1546 1544 1543 1541 1539 1538 1536 1533 1531 1528 1525 1522 1519 1517 1514 1511 1509 1506 1503 1500 1497 1495 1493 1490 1487 1483 1478 1474 1469 1465 1460 1455 1450 1445 1439 1433 1428 1423 1419 1415 1411 1408 1405 1402 1398 1396 1393 1390 1388 1389 1392 1395 1398 1402 1404 1403 1406 1408 1406 1406 1408
1555 1556 1556 1557 1558 1559 1560 1561 1561 1561 1561 1560 1560 1559 1558 1557 1556 1555 1554 1553 1552 1551 1550 1549 1547 1546 1544 1542 1540 1538 1536 1534 1532 1529 1526 1523 1520 1517 1515 1512 1509 1506 1503 1500 1498 1495 1492 1489 1486 1483 1478 1473 1468 1464 1459 1455 1449 1444 1439 1433 1427 1422 1417 1413 1408 1404 1400 1397 1394 1391 1389 1388 1387 1387 1389 1392 1395 1397 1398 1399 1402 1403 1402 1402 1403
1556 1557 1557 1558 1559 1560 1561 1562 1562 1562 1562 1561 1561 1560 1559 1559 1558 1557 1556 1555 1554 1553 1552 1550 1549 1547 1545 1543 1541 1539 1537 1535 1532 1529 1527 1524 1521 1518 1515 1513 1510 1507 1504 1501 1498 1495 1492 1489 1486 1482 1478 1473 1468 1463 1458 1454 1449 1444 1439 1433 1427 1421 1416 1412 1408 1404 1400 1396 1392 1388 1386 1385 1385 1386 1387 1389 1390 1392 1393 1395 1396 1397 1397 1398 1399
1557 1557 1558 1560 1561 1561 1562 1563 1563 1563 1562 1562 1562 1561 1561 1560 1559 1558 1558 1557 1556 1555 1553 1552 1550 1548 1546 1544 1542 1540 1538 1536 1533 1531 1528 1525 1522 1519 1516 1513 1511 1508 1505 1503 1500 1496 1493 1490 1486 1482 1478 1473 1468 1463 1458 1454 1449 1445 1439 1434 1429 1423 1417 1412 1408 1404 1400 1395 1390 1386 1384 1383 1383 1383 1384 1385 1386 1388 1389 1390 1391 1391 1392 1393 1394
1558 1559 1560 1561 1562 1563 1563 1563 1563 1563 1563 1563 1563 1562 1562 1561 1561 1560 1560 1559 1558 1556 1555 1553 1551 1549 1547 1545 1543 1541 1539 1536 1534 1531 1529 1526 1524 1521 1518 1515 1512 1509 1507 1504 1501 1498 1495 1491 1487 1483 1478 1473 1469 1463 1458 1454 1449 1445 1440 1435 1430 1424 1418 1412 1408 1404 1399 1394 1389 1385 1383 1382 1381 1381 1381 1382 1383 1384 1384 1385 1386 1387 1388 1388 1390
1559 1560 1561 1562 1563 1564 1564 1564 1564 1564 1564 1564 1563 1563 1563 1562 1562 1561 1561 1560 1559 1557 1556 1554 1552 1550 1548 1546 1544 1541 1539 1537 1534 1532 1530 1527 1525 1522 1520 1517 1514 1511 1508 1505 1503 1500 1497 1493 1488 1484 1479 1474 1470 1464 1459 1454 1449 1445 1441 1436 1431 1425 1420 1413 1408 1403 1399 1394 1388 1384 1383 1382 1381 1381 1381 1380 1381 1381 1381 1381 1382 1382 1383 1384 1385
1560 1561 1562 1563 1564 1564 1565 1565 1565 1565 1565 1564 1564 1564 1564 1564 1563 1562 1562 1561 1559 1558 1556 1555 1553 1551 1549 1547 1545 1542 1540 1537 1535 1533 1531 1528 1526 1524 1521 1519 1516 1513 1510 1507 1504 1501 1498 1494 1489 1484 1480 1475 1471 1466 1461 1456 1451 1446 1442 1437 1431 1427 1422 1415 1409 1404 1399 1394 1390 1386 1385 1384 1383 1382 1381 1381 1380 1379 1379 1379 1379 1379 1380 1380 1380
1561 1562 1563 1564 1565 1565 1565 1565 1565 1565 1565 1565 1565 1565 1565 1564 1564 1563 1562 1561 1560 1559 1557 1555 1554 1552 1550 1548 1545 1543 1541 1538 1536 1534 1531 1529 1527 1524 1522 1520 1517 1514 1511 1508 1505 1502 1498 1495 1490 1485 1481 1476 1471 1466 1461 1457 1453 1448 1444 1438 1433 1428 1422 1416 1411 1406 1401 1397 1394 1391 1389 1387 1386 1385 1384 1383 1382 1380 1379 1379 1378 1378 1378 1377 1377
1561 1563 1564 1564 1565 1565 1566 1566 1566 1566 1566 1566 1566 1566 1566 1565 1565 1564 1563 1562 1561 1559 1558 1556 1555 1553 1551 1549 1546 1544 1542 1539 1537 1534 1532 1529 1527 1525 1523 1520 1518 1515 1512 1509 1506 1503 1499 1495 1491 1486 1482 1477 1473 1468 1463 1459 1455 1450 1445 1440 1435 1430 1424 1419 1415 1411 1407 1403 1399 1396 1393 1391 1389 1387 1385 1384 1382 1381 1380 1379 1378 1377 1377 1376 1376
1562 1563 1564 1565 1565 1566 1566 1566 1567 1567 1567 1567 1567 1567 1567 1566 1566 1565 1564 1563 1561 1560 1559 1557 1556 1554 1552 1550 1547 1545 1543 1540 1538 1535 1532 1530 1528 1526 1523 1521 1518 1515 1513 1510 1506 1503 1499 1496 1492 1487 1483 1479 1474 1470 1465 1460 1455 1450 1446 1442 1438 1434 1430 1426 1423 1418 1413 1409 1405 1400 1397 1393 1390 1387 1385 1384 1382 1381 1380 1380 1379 1378 1377 1377 1376
1562 1563 1564 1565 1566 1566 1567 1567 1567 1568 1568 1568 1568 1568 1568 1567 1566 1566 1565 1563 1562 1561 1560 1558 1556 1555 1553 1551 1548 1546 1544 1542 1539 1536 1534 1531 1530 1527 1525 1522 1519 1516 1514 1510 1507 1504 1500 1496 1492 1487 1483 1479 1475 1471 1467 1462 1458 1454 1449 1445 1442 1438 1435 1431 1427 1422 1418 1414 1410 1405 1400 1396 1392 1390 1387 1385 1384 1383 1382 1381 1380 1380 1379 1378 1377
1563 1564 1564 1565 1566 1567 1567 1568 1568 1569 1569 1569 1569 1569 1568 1568 1567 1566 1565 1564 1563 1562 1560 1559 1557 1555 1553 1552 1550 1548 1546 1543 1541 1538 1536 1534 1532 1529 1526 1524 1521 1518 1515 1512 1508 1505 1501 1497 1492 1488 1484 1481 1477 1473 1469 1465 1461 1457 1453 1449 1446 1442 1438 1434 1430 1426 1423 1419 1414 1410 1405 1401 1398 1394 1391 1389 1388 1387 1385 1383 1383 1382 1381 1380 1380
1563 1564 1565 1566 1566 1567 1568 1568 1569 1569 1569 1569 1569 1569 1568 1568 1567 1566 1566 1564 1563 1562 1561 1560 1558 1556 1555 1553 1551 1549 1547 1545 1543 1541 1538 1536 1533 1531 1528 1526 1523 1520 1517 1513 1509 1505 1501 1498 1494 1491 1488 1484 1481 1477 1473 1469 1465 1461 1457 1453 1450 1446 1442 1439 1435 1432 1429 1425 1420 1416 1411 1407 1404 1400 1397 1395 1394 1392 1389 1388 1386 1385 1384 1383 1383
1563 1564 1565 1566 1566 1567 1568 1569 1569 1569 1570 1570 1569 1569 1569 1568 1568 1567 1566 1565 1563 1562 1561 1560 1559 1557 1555 1554 1552 1550 1549 1547 1544 1542 1540 1537 1535 1532 1530 1527 1524 1521 1517 1513 1509 1506 1503 1500 1497 1494 1491 1488 1485 1481 1478 1474 1470 1466 1462 1458 1454 1450 1447 1444 1441 1438 1434 1430 1425 1421 1417 1413 1410 1407 1405 1402 1400 1397 1395 1393 1391 1389 1388 1387 1387
1562 1563 1565 1566 1566 1567 1568 1569 1569 1570 1570 1570 1570 1569 1569 1569 1568 1567 1566 1565 1564 1563 1561 1560 1559 1557 1556 1555 1553 1551 1549 1547 1545 1543 1541 1538 1536 1533 1531 1528 1525 1522 1518 1514 1511 1508 1505 1503 1500 1498 1495 1492 1488 1485 1482 1478 1475 1471 1467 1463 1458 1455 1452 1449 1446 1442 1439 1435 1431 1427 1423 1420 1417 1414 1412 1409 1407 1404 1401 1399 1397 1396 1394 1393 1393
1562 1563 1564 1565 1566 1567 1568 1569 1569 1570 1570 1570 1570 1569 1569 1569 1568 1567 1566 1565 1564 1563 1561 1560 1559 1558 1556 1555 1553 1552 1550 1548 1546 1544 1542 1539 1537 1535 1532 1529 1526 1522 1519 1515 1512 1510 1508 1506 1503 1501 1498 1495 1492 1489 1485 1482 1479 1476 1471 1467 1464 1460 1457 1454 1450 1447 1443 1440 1437 1433 1430 1427 1424 1421 1419 1417 1414 1411 1408 1405 1404 1402 1401 1400 1399
1562 1563 1564 1565 1566 1567 1568 1568 1569 1569 1570 1570 1569 1569 1569 1569 1568 1567 1566 1565 1564 1563 1562 1561 1559 1558 1557 1555 1554 1552 1550 1548 1546 1544 1542 1540 1538 1535 1533 1530 1527 1523 1520 1517 1515 1512 1510 1508 1506 1503 1501 1498 1495 1492 1489 1486 1483 1480 1476 1473 1469 1466 1462 1459 1455 1452 1449 1446 1443 1439 1436 1433 1430 1428 1426 1423 1421 1418 1415 1413 1411 1409 1408 1407 1406
1562 1563 1564 1565 1566 1567 1568 1568 1569 1569 1569 1569 1569 1569 1569 1568 1568 1567 1567 1566 1565 1564 1562 1561 1560 1558 1557 1556 1554 1553 1551 1549 1547 1545 1543 1541 1538 1536 1533 1530 1527 1524 1521 1519 1517 1515 1512 1510 1508 1506 1503 1500 1497 1495 1492 1489 1487 1484 1481 1478 1474 1471 1467 1463 1460 1457 1454 1451 1448 1446 1443 1440 1438 1435 1433 1430 1427 1424 1422 1420 1419 1417 1416 1415 1414
1562 1563 1564 1565 1566 1567 1567 1568 1568 1569 1569 1569 1568 1568 1568 1568 1567 1567 1566 1565 1565 1564 1563 1562 1560 1559 1557 1556 1554 1553 1551 1549 1547 1545 1543 1541 1539 1536 1533 1530 1528 1525 1523 1521 1519 1517 1515 1513 1510 1508 1505 1503 1500 1498 1495 1492 1490 1488 1485 1482 1479 1476 1472 1468 1465 1462 1459 1456 1454 1451 1449 1446 1444 1441 1438 1436 1433 1431 1429 1427 1426 1425 1424 1423 1422
1561 1562 1563 1564 1565 1566 1567 1567 1567 1568 1568 1568 1568 1568 1567 1567 1567 1566 1566 1565 1564 1563 1563 1562 1560 1559 1558 1556 1554 1553 1551 1549 1548 1546 1544 1542 1540 1537 1534 1532 1530 1527 1525 1523 1521 1519 1517 1515 1512 1510 1508 1505 1502 1500 1498 1495 1493 1491 1488 1485 1483 1480 1477 1474 1470 1467 1464 1461 1459 1456 1454 1451 1449 1447 1444 1441 1439 1438 1436 1434 1432 1432 1431 1430 1429
1561 1562 1563 1564 1565 1565 1566 1566 1567 1567 1567 1567 1567 1567 1567 1566 1566 1566 1565 1565 1564 1563 1562 1561 1560 1559 1558 1556 1555 1553 1551 1550 1548 1547 1545 1543 1540 1538 1536 1534 1531 1529 1527 1525 1523 1521 1519 1517 1514 1512 1510 1508 1505 1503 1500 1498 1496 1494 1491 1488 1486 1483 1480 1477 1474 1471 1468 1466 1464 1461 1459 1457 1454 1452 1449 1448 1446 1444 1442 1441 1439 1438 1437 1436 1435
1560 1561 1562 1563 1564 1564 1565 1565 1566 1566 1566 1566 1566 1566 1566 1565 1565 1565 1564 1564 1563 1563 1562 1561 1560 1559 1557 1556 1555 1553 1551 1550 1548 1547 1545 1543 1541 1539 1537 1535 1533 1531 1529 1527 1525 1522 1520 1518 1516 1514 1512 1510 1507 1505 1503 1500 1498 1496 1494 1491 1489 1486 1483 1481 1478 1475 1473 1470 1468 1466 1464 1462 1460 1457 1455 1454 1452 1451 1449 1447 1446 1444 1443 1442 1442
1559 1560 1561 1562 1563 1563 1564 1564 1565 1565 1565 1565 1565 1565 1565 1564 1564 1564 1564 1563 1563 1562 1561 1560 1559 1558 1557 1556 1554 1553 1551 1550 1548 1547 1545 1543 1541 1540 1538 1536 1534 1532 1530 1528 1526 1524 1522 1520 1518 1516 1514 1512 1510 1507 1505 1503 1500 1498 1496 1494 1492 1490 1487 1485 1482 1480 1477 1475 1473 1471 1469 1467 1465 1463 1461 1459 1458 1457 1455 1453 1452 1451 1450 1449 1448
1558 1559 1560 1561 1561 1562 1563 1563 1564 1564 1564 1564 1564 1564 1564 1563 1563 1563 1563 1562 1562 1561 1560 1559 1559 1558 1556 1555 1554 1553 1551 1550 1548 1547 1545 1543 1542 1540 1539 1537 1535 1533 1532 1530 1528 1525 1523 1521 1520 1518 1516 1514 1512 1509 1507 1505 1503 1500 1499 1497 1495 1493 1491 1488 1486 1484 1481 1479 1477 1475 1473 1471 1469 1468 1466 1465 1463 1462 1460 1459 1458 1457 1456 1456 1455
1557 1558 1559 1560 1560 1561 1562 1562 1563 1563 1563 1563 1563 1563 1563 1562 1562 1562 1561 1561 1561 1560 1559 1559 1558 1557 1556 1555 1553 1552 1551 1550 1548 1547 1545 1544 1542 1541 1539 1538 1536 1534 1533 1531 1529 1527 1525 1523 1521 1519 1517 1515 1513 1511 1509 1507 1504 1502 1500 1499 1497 1495 1493 1491 1489 1487 1485 1483 1481 1479 1477 1475 1473 1472 1470 1469 1468 1467 1465 1464 1463 1463 1462 1461 1461
1555 1556 1557 1558 1559 1560 1560 1561 1561 1562 1562 1562 1562 1562 1562 1561 1561 1561 1560 1560 1560 1559 1558 1558 1557 1556 1555 1554 1553 1552 1551 1549 1548 1547 1545 1544 1542 1541 1540 1538 1537 1535 1534 1532 1530 1528 1526 1524 1522 1520 1518 1516 1515 1513 1511 1509 1506 1504 1503 1501 1499 1497 1495 1494 1492 1490 1488 1486 1485 1483 1481 1479 1477 1476 1474 1473 1472 1471 1470 1469 1468 1467 1466 1466 1466
1554 1555 1556 1557 1557 1558 1559 1559 1560 1560 1560 1561 1561 1561 1560 1560 1560 1559 1559 1559 1559 1558 1557 1557 1556 1555 1554 1553 1552 1551 1550 1549 1547 1546 1545 1543 1542 1541 1540 1538 1537 1536 1534 1532 1531 1529 1527 1525 1523 1522 1520 1518 1516 1514 1512 1510 1508 1506 1504 1503 1501 1499 1497 1495 1494 1492 1490 1489 1487 1486 1484 1483 1481 1479 1478 1476 1475 1474 1473 1473 1472 1471 1471 1470 1470
1552 1553 1554 1555 1556 1556 1557 1557 1558 1559 1559 1559 1559 1559 1559 1559 1559 1558 1558 1558 1557 1557 1556 1556 1555 1554 1553 1552 1551 1550 1549 1548 1547 1545 1544 1543 1542 1541 1540 1538 1537 1536 1534 1533 1531 1530 1528 1526 1525 1523 1521 1519 1517 1515 1514 1512 1510 1508 1506 1504 1503 1501 1499 1497 1496 1494 1493 1491 1490 1488 1487 1485 1484 1482 1481 1480 1479 1478 1477 1476 1476 1475 1475 1474 1474
1551 1552 1552 1553 1554 1555 1555 1556 1556 1557 1557 1557 1557 1558 1558 1558 1557 1557 1557 1556 1556 1556 1555 1555 1554 1553 1552 1551 1550 1549 1548 1547 1545 1544 1543 1542 1541 1540 1539 1538 1537 1535 1534 1533 1531 1530 1528 1527 1525 1524 1522 1520 1519 1517 1515 1513 1511 1510 1508 1506 1504 1503 1501 1499 1498 1496 1495 1493 1492 1490 1489 1488 1487 1485 1484 1483 1482 1481 1480 1479 1479 1478 1478 1478 1477
1548 1549 1550 1551 1552 1553 1554 1554 1554 1555 1555 1555 1556 1556 1556 1556 1556 1556 1555 1555 1555 1554 1554 1553 1552 1552 1551 1550 1549 1548 1547 1545 1544 1543 1542 1541 1540 1539 1538 1537 1536 1535 1534 1532 1531 1530 1528 1527 1525 1524 1523 1521 1520 1518 1516 1515 1513 1511 1510 1508 1506 1505 1503 1501 1500 1498 1497 1495 1493 1492 1491 1490 1489 1487 1486 1485 1484 1483 1483 1482 1481 1481 1480 1480 1480
1546 1547 1548 1549 1550 1551 1551 1552 1552 1553 1553 1553 1554 1554 1554 1554 1554 1554 1553 1553 1553 1552 1552 1551 1551 1550 1549 1548 1547 1547 1545 1544 1543 1542 1541 1540 1539 1538 1537 1536 1535 1534 1533 1532 1531 1529 1528 1527 1525 1524 1523 1522 1520 1519 1517 1516 1514 1513 1511 1509 1508 1506 1504 1503 1501 1500 1498 1497 1495 1494 1493 1491 1490 1489 1488 1487 1486 1485 1485 1484 1483 1483 1483 1482 1482
1544 1545 1546 1547 1547 1548 1549 1550 1550 1551 1551 1551 1552 1552 1552 1552 1552 1551 1551 1551 1551 1550 1550 1549 1549 1548 1548 1547 1546 1545 1544 1543 1542 1541 1540 1539 1538 1537 1536 1535 1534 1533 1532 1531 1530 1529 1527 1526 1525 1524 1522 1521 1520 1519 1518 1516 1515 1513 1512 1510 1509 1507 1506 1504 1502 1501 1499 1498 1496 1495 1494 1493 1492 1491 1490 1489 1488 1487 1486 1486 1485 1485 1484 1484 1484
1542 1542 1543 1544 1545 1546 1547 1547 1548 1548 1548 1549 1549 1549 1549 1549 1549 1549 1549 1549 1548 1548 1548 1547 1547 1546 1545 1545 1544 1543 1542 1541 1541 1540 1539 1538 1537 1536 1535 1534 1532 1532 1531 1530 1529 1528 1527 1525 1524 1523 1522 1521 1520 1518 1517 1516 1515 1514 1512 1511 1509 1508 1506 1505 1503 1502 1500 1499 1498 1496 1495 1494 1493 1492 1491 1490 1489 1488 1488 1487 1487 1486 1486 1486 1486
1539 1540 1541 1542 1542 1543 1544 1544 1545 1545 1546 1546 1546 1546 1546 1546 1546 1546 1546 1546 1546 1545 1545 1545 1544 1544 1543 1542 1542 1541 1540 1540 1539 1538 1537 1536 1535 1534 1533 1532 1531 1530 1529 1528 1527 1526 1525 1524 1523 1522 1521 1520 1519 1518 1517 1516 1515 1513 1512 1511 1510 1508 1507 1505 1504 1503 1501 1500 1498 1497 1496 1495 1493 1492 1491 1491 1490 1489 1489 1488 1487 1487 1487 1487 1487